User: anonymous   Login
Location: Caltech
(34.1382°N, 118.1253°W)
Time: 02:27:46
(UTC-08:00)
Language:

SL-16 R/B - Orbit

View from above orbital plane
View from above orbital plane
View from above satellite
View from above satellite

Ground track
Ground track

The orbit data is extracted from the following two-line orbital elements,

1 31793U 07029B   17022.88319135 -.00000043  00000-0  23712-5 0  9999
2 31793  70.9778 334.3726 0002593 281.5925 109.8458 14.14379425494172
Epoch (UTC): 22 January 2017 21:11:47
Eccentricity: 0.0002593
inclination: 70.9778°
perigee height: 842 km
apogee height: 846 km
right ascension of ascending node: 334.3726°
argument of perigee: 281.5925°
revolutions per day: 14.14379425
mean anomaly at epoch: 109.8458°
orbit number at epoch: 49417

The dashed part of the orbit path shows where the satellite is in the earth's shadow,  

DLR